DLH2PK EDDK-EDDH

Flight info

Callsign DLH2PK
Flight time N/A
Altitude 33000
Route PODIP1R PODIP Y867 PELUN DCT ANZIV DCT WRB Y867 TOLGI DCT SAS/N0454F320 P605 NOLGO NOLGO3P
Aircraft A320/M-SDE3FGHIRWY/LB1

Departure

Time 2026-04-24 16:40
Airport Cologne Bonn Airport (EDDK)

Arrival

Time N/A
Airport Hamburg Helmut Schmidt Airport (EDDH)
Time Latitude Longitude Altitude Speed Heading
2026-04-24 16:16 50.88170 7.11946 233 ft 0 kts 216°
2026-04-24 16:27 50.88186 7.11964 234 ft 4 kts 216°
2026-04-24 16:27 50.88208 7.11989 236 ft 4 kts 217°
2026-04-24 16:27 50.88230 7.12012 235 ft 4 kts 196°
2026-04-24 16:27 50.88241 7.12016 234 ft 0 kts 129°
2026-04-24 16:29 50.88234 7.12026 235 ft 6 kts 139°
2026-04-24 16:30 50.88117 7.12236 232 ft 13 kts 123°
2026-04-24 16:30 50.88066 7.12393 233 ft 21 kts 131°
2026-04-24 16:30 50.87953 7.12564 232 ft 22 kts 139°
2026-04-24 16:31 50.87820 7.12630 232 ft 20 kts 154°
2026-04-24 16:31 50.87698 7.12801 232 ft 27 kts 137°
2026-04-24 16:31 50.87556 7.13009 232 ft 28 kts 137°
2026-04-24 16:31 50.87407 7.13222 232 ft 29 kts 137°
2026-04-24 16:32 50.87307 7.13370 232 ft 30 kts 139°
2026-04-24 16:32 50.87106 7.13660 240 ft 28 kts 137°
2026-04-24 16:32 50.86972 7.13854 245 ft 24 kts 137°
2026-04-24 16:32 50.86867 7.14005 255 ft 17 kts 139°
2026-04-24 16:33 50.86785 7.14119 255 ft 14 kts 149°
2026-04-24 16:33 50.86726 7.14150 256 ft 4 kts 143°
2026-04-24 16:33 50.86719 7.14157 257 ft 0 kts 142°
2026-04-24 16:34 50.86703 7.14181 258 ft 11 kts 137°
2026-04-24 16:34 50.86609 7.14320 261 ft 24 kts 136°
2026-04-24 16:35 50.86492 7.14491 267 ft 22 kts 136°
2026-04-24 16:35 50.86361 7.14679 274 ft 28 kts 138°
2026-04-24 16:35 50.86220 7.14885 282 ft 27 kts 139°
2026-04-24 16:35 50.86090 7.15072 288 ft 23 kts 138°
2026-04-24 16:36 50.85998 7.15202 293 ft 24 kts 137°
2026-04-24 16:36 50.85857 7.15409 300 ft 28 kts 137°
2026-04-24 16:36 50.85717 7.15612 300 ft 27 kts 138°
2026-04-24 16:36 50.85583 7.15805 305 ft 23 kts 138°
2026-04-24 16:37 50.85494 7.15937 308 ft 10 kts 126°
2026-04-24 16:37 50.85486 7.15997 309 ft 3 kts 82°
2026-04-24 16:37 50.85492 7.16018 308 ft 4 kts 64°
2026-04-24 16:37 50.85542 7.16107 309 ft 17 kts 48°
2026-04-24 16:38 50.85637 7.16267 309 ft 20 kts 45°
2026-04-24 16:38 50.85694 7.16317 308 ft 0 kts 336°
2026-04-24 16:38 50.85695 7.16313 308 ft 1 kts 320°
2026-04-24 16:39 50.85704 7.16301 307 ft 10 kts 319°
2026-04-24 16:39 50.85949 7.15947 302 ft 83 kts 317°
2026-04-24 16:39 50.86518 7.15123 279 ft 139 kts 317°
2026-04-24 16:40 50.87337 7.13936 423 ft 168 kts 317°
2026-04-24 16:40 50.88193 7.12706 1261 ft 167 kts 317°
2026-04-24 16:40 50.89110 7.11482 1795 ft 184 kts 328°
2026-04-24 16:40 50.90444 7.11083 2086 ft 213 kts 10°
2026-04-24 16:41 50.91810 7.12115 2832 ft 219 kts 29°
2026-04-24 16:41 50.93051 7.13453 3868 ft 211 kts 40°
2026-04-24 16:41 50.94011 7.15306 4514 ft 230 kts 58°
2026-04-24 16:41 50.94791 7.17672 4933 ft 253 kts 61°
2026-04-24 16:42 50.95576 7.20190 5645 ft 262 kts 61°
2026-04-24 16:42 50.96383 7.22815 6513 ft 266 kts 61°
2026-04-24 16:42 50.97201 7.25471 7312 ft 271 kts 61°
2026-04-24 16:42 50.98035 7.28165 8139 ft 274 kts 62°
2026-04-24 16:43 50.98887 7.30902 8952 ft 279 kts 61°
2026-04-24 16:43 50.99755 7.33683 9778 ft 283 kts 61°
2026-04-24 16:43 51.00638 7.36498 10505 ft 290 kts 61°
2026-04-24 16:43 51.01414 7.39596 10770 ft 315 kts 73°
2026-04-24 16:44 51.01654 7.43185 10971 ft 342 kts 90°
2026-04-24 16:44 51.01189 7.46948 11279 ft 361 kts 106°
2026-04-24 16:44 51.00416 7.50787 11873 ft 368 kts 106°
2026-04-24 16:44 50.99640 7.54698 12520 ft 374 kts 106°
2026-04-24 16:45 50.98859 7.58657 13160 ft 379 kts 106°
2026-04-24 16:45 50.98070 7.62675 13817 ft 384 kts 107°
2026-04-24 16:45 50.97271 7.66748 14446 ft 388 kts 107°
2026-04-24 16:45 50.96475 7.70815 15024 ft 392 kts 107°
2026-04-24 16:46 50.95741 7.75037 15577 ft 396 kts 100°
2026-04-24 16:46 50.95485 7.79407 16158 ft 399 kts 89°
2026-04-24 16:46 50.95767 7.83719 16735 ft 401 kts 77°
2026-04-24 16:46 50.96607 7.87946 17271 ft 404 kts 64°
2026-04-24 16:47 50.97948 7.91860 17840 ft 406 kts 57°
2026-04-24 16:47 50.99401 7.95724 18370 ft 410 kts 58°
2026-04-24 16:47 51.00855 7.99640 18877 ft 413 kts 58°
2026-04-24 16:47 51.02309 8.03593 19325 ft 416 kts 58°
2026-04-24 16:48 51.03770 8.07584 19809 ft 419 kts 58°
2026-04-24 16:48 51.05238 8.11604 20295 ft 422 kts 58°
2026-04-24 16:48 51.06720 8.15652 20730 ft 426 kts 58°
2026-04-24 16:48 51.08196 8.19685 21160 ft 430 kts 58°
2026-04-24 16:49 51.09706 8.23812 21614 ft 433 kts 58°
2026-04-24 16:49 51.11224 8.27972 22032 ft 436 kts 58°
2026-04-24 16:49 51.12748 8.32167 22462 ft 440 kts 58°
2026-04-24 16:49 51.14281 8.36402 22891 ft 443 kts 58°
2026-04-24 16:50 51.15513 8.39811 23207 ft 446 kts 58°
2026-04-24 16:50 51.22885 8.57884 24745 ft 455 kts 47°
2026-04-24 16:50 51.31069 8.73502 26124 ft 463 kts 48°
2026-04-24 16:50 51.39404 8.89550 27339 ft 473 kts 47°
2026-04-24 16:51 51.47770 9.05640 28430 ft 482 kts 48°
2026-04-24 16:51 51.57638 9.20186 29591 ft 482 kts 36°
2026-04-24 16:51 51.68041 9.33745 31026 ft 480 kts 36°
2026-04-24 16:51 51.78418 9.47336 32222 ft 481 kts 36°
2026-04-24 16:52 51.89469 9.58643 33244 ft 478 kts 22°
2026-04-24 16:52 52.00983 9.68233 33080 ft 482 kts 22°
2026-04-24 16:52 52.04580 9.71241 33187 ft 478 kts 22°
2026-04-24 16:52 52.08335 9.74376 33148 ft 477 kts 22°
2026-04-24 16:53 52.32403 9.89937 33125 ft 467 kts
2026-04-24 16:53 52.45233 9.92764 33017 ft 465 kts
2026-04-24 16:53 52.50926 9.94026 33228 ft 457 kts
2026-04-24 16:54 52.54002 9.94703 32976 ft 437 kts
2026-04-24 16:54 52.56969 9.95359 32273 ft 425 kts
2026-04-24 16:54 52.59911 9.96000 31165 ft 427 kts
2026-04-24 16:54 52.62848 9.96635 30281 ft 423 kts
2026-04-24 16:55 52.65757 9.97267 28997 ft 423 kts
2026-04-24 16:55 52.68633 9.97896 27941 ft 420 kts
2026-04-24 16:55 52.71506 9.98532 26990 ft 414 kts
2026-04-24 16:55 52.74339 9.99162 26092 ft 407 kts
2026-04-24 16:56 52.79163 10.00229 24588 ft 396 kts
2026-04-24 16:56 52.83233 10.01136 23295 ft 387 kts
2026-04-24 16:56 52.85878 10.01726 22376 ft 381 kts